AFL6970 KRSW-MUHA

Flight info

Callsign AFL6970
Flight time 0h 49m
Altitude 34000
Route GOODY DCT KARTR Q81 TUNSL Y196 CANOA ENTRY5
Aircraft B738/M-SDE2E3FGHIRWXY/LB1

Departure

Time 2026-04-28 16:26
Airport Southwest Florida International Airport (KRSW)

Arrival

Time 2026-04-28 17:15
Airport José Martí International Airport (MUHA)
Time Latitude Longitude Altitude Speed Heading
2026-04-28 16:11 26.52951 -81.75445 28 ft 0 kts 279°
2026-04-28 16:16 26.52950 -81.75440 28 ft 2 kts 279°
2026-04-28 16:17 26.52945 -81.75407 28 ft 2 kts 279°
2026-04-28 16:17 26.52943 -81.75391 27 ft 2 kts 278°
2026-04-28 16:17 26.52935 -81.75378 27 ft 2 kts 333°
2026-04-28 16:17 26.52925 -81.75375 27 ft 0 kts
2026-04-28 16:18 26.52918 -81.75376 27 ft 0 kts
2026-04-28 16:19 26.52922 -81.75375 27 ft 3 kts
2026-04-28 16:20 26.52995 -81.75363 27 ft 12 kts
2026-04-28 16:20 26.53033 -81.75357 27 ft 5 kts
2026-04-28 16:20 26.53092 -81.75399 27 ft 15 kts 281°
2026-04-28 16:20 26.53105 -81.75507 27 ft 17 kts 279°
2026-04-28 16:21 26.53127 -81.75648 27 ft 20 kts 279°
2026-04-28 16:21 26.53146 -81.75777 27 ft 18 kts 283°
2026-04-28 16:21 26.53215 -81.75909 27 ft 16 kts 256°
2026-04-28 16:21 26.53138 -81.76044 27 ft 23 kts 233°
2026-04-28 16:22 26.53060 -81.76160 27 ft 20 kts 233°
2026-04-28 16:22 26.52957 -81.76320 27 ft 27 kts 235°
2026-04-28 16:22 26.52848 -81.76486 27 ft 24 kts 232°
2026-04-28 16:22 26.52741 -81.76653 27 ft 27 kts 236°
2026-04-28 16:23 26.52665 -81.76769 27 ft 6 kts 233°
2026-04-28 16:23 26.52654 -81.76784 27 ft 3 kts 233°
2026-04-28 16:23 26.52613 -81.76848 27 ft 16 kts 233°
2026-04-28 16:23 26.52585 -81.76904 27 ft 5 kts 267°
2026-04-28 16:24 26.52612 -81.76951 27 ft 10 kts 322°
2026-04-28 16:24 26.52655 -81.76978 27 ft 5 kts 354°
2026-04-28 16:24 26.52679 -81.76960 27 ft 0 kts 55°
2026-04-28 16:25 26.52762 -81.76832 27 ft 54 kts 54°
2026-04-28 16:25 26.53098 -81.76314 28 ft 115 kts 54°
2026-04-28 16:25 26.53602 -81.75540 52 ft 149 kts 54°
2026-04-28 16:25 26.54219 -81.74566 389 ft 150 kts 57°
2026-04-28 16:26 26.54749 -81.73486 795 ft 165 kts 66°
2026-04-28 16:26 26.54995 -81.72208 1410 ft 182 kts 96°
2026-04-28 16:26 26.54375 -81.70972 2015 ft 197 kts 140°
2026-04-28 16:26 26.53010 -81.70519 2472 ft 220 kts 182°
2026-04-28 16:27 26.51515 -81.71098 2968 ft 239 kts 215°
2026-04-28 16:27 26.50396 -81.72496 3499 ft 254 kts 237°
2026-04-28 16:27 26.47463 -81.74801 4598 ft 282 kts 181°
2026-04-28 16:28 26.45569 -81.74371 5415 ft 281 kts 154°
2026-04-28 16:28 26.43805 -81.73414 6219 ft 284 kts 153°
2026-04-28 16:28 26.41950 -81.72583 6988 ft 290 kts 160°
2026-04-28 16:28 26.39977 -81.71999 7729 ft 296 kts 165°
2026-04-28 16:29 26.35851 -81.71162 9191 ft 307 kts 168°
2026-04-28 16:29 26.31583 -81.70339 10523 ft 321 kts 167°
2026-04-28 16:30 26.29366 -81.69893 11161 ft 328 kts 167°
2026-04-28 16:30 26.27109 -81.69434 11927 ft 331 kts 167°
2026-04-28 16:30 26.24841 -81.68972 12635 ft 335 kts 167°
2026-04-28 16:30 26.22537 -81.68503 13373 ft 339 kts 167°
2026-04-28 16:31 26.20222 -81.68031 14116 ft 342 kts 167°
2026-04-28 16:31 26.17840 -81.67547 14866 ft 346 kts 168°
2026-04-28 16:31 26.15473 -81.67066 15613 ft 349 kts 168°
2026-04-28 16:31 26.13087 -81.66582 16300 ft 354 kts 167°
2026-04-28 16:32 26.10624 -81.66081 16966 ft 359 kts 167°
2026-04-28 16:32 26.05681 -81.65078 18321 ft 365 kts 168°
2026-04-28 16:32 26.03138 -81.64562 18947 ft 370 kts 168°
2026-04-28 16:33 26.00621 -81.64050 19579 ft 374 kts 168°
2026-04-28 16:33 25.98895 -81.63701 20010 ft 376 kts 168°
2026-04-28 16:33 25.95461 -81.62967 20816 ft 381 kts 166°
2026-04-28 16:33 25.92862 -81.62329 21382 ft 385 kts 165°
2026-04-28 16:34 25.90216 -81.61643 21959 ft 389 kts 165°
2026-04-28 16:34 25.87593 -81.60956 22557 ft 391 kts 165°
2026-04-28 16:34 25.84931 -81.60262 23084 ft 395 kts 165°
2026-04-28 16:34 25.82227 -81.59563 23573 ft 399 kts 166°
2026-04-28 16:35 25.79494 -81.58862 24063 ft 402 kts 166°
2026-04-28 16:35 25.76742 -81.58160 24525 ft 406 kts 166°
2026-04-28 16:35 25.73986 -81.57459 24974 ft 410 kts 166°
2026-04-28 16:35 25.71199 -81.56752 25476 ft 412 kts 166°
2026-04-28 16:36 25.68387 -81.56040 25901 ft 416 kts 166°
2026-04-28 16:36 25.65561 -81.55326 26338 ft 419 kts 166°
2026-04-28 16:36 25.62701 -81.54604 26730 ft 423 kts 167°
2026-04-28 16:36 25.59814 -81.53875 27176 ft 425 kts 167°
2026-04-28 16:37 25.56921 -81.53146 27548 ft 429 kts 167°
2026-04-28 16:37 25.54003 -81.52414 27991 ft 430 kts 167°
2026-04-28 16:37 25.51063 -81.51747 28373 ft 433 kts 170°
2026-04-28 16:38 25.45005 -81.51150 29123 ft 438 kts 180°
2026-04-28 16:38 25.41976 -81.51134 29458 ft 441 kts 182°
2026-04-28 16:38 25.38885 -81.51182 29841 ft 442 kts 182°
2026-04-28 16:38 25.35800 -81.51251 30237 ft 443 kts 183°
2026-04-28 16:39 25.32709 -81.51320 30560 ft 445 kts 183°
2026-04-28 16:39 25.29622 -81.51379 30897 ft 447 kts 183°
2026-04-28 16:39 25.26502 -81.51428 31240 ft 449 kts 183°
2026-04-28 16:39 25.23378 -81.51469 31574 ft 450 kts 182°
2026-04-28 16:40 25.20209 -81.51504 31891 ft 452 kts 182°
2026-04-28 16:40 25.17069 -81.51534 32175 ft 455 kts 182°
2026-04-28 16:40 25.13925 -81.51562 32522 ft 456 kts 182°
2026-04-28 16:40 25.10733 -81.51588 32851 ft 456 kts 182°
2026-04-28 16:41 25.07533 -81.51613 33171 ft 458 kts 183°
2026-04-28 16:41 25.04339 -81.51638 33530 ft 459 kts 183°
2026-04-28 16:41 25.01152 -81.51662 33799 ft 462 kts 183°
2026-04-28 16:41 24.97943 -81.51691 34074 ft 463 kts 184°
2026-04-28 16:42 24.94708 -81.51903 34083 ft 462 kts 190°
2026-04-28 16:42 24.91581 -81.52642 34090 ft 453 kts 202°
2026-04-28 16:42 24.88751 -81.54050 34096 ft 446 kts 214°
2026-04-28 16:43 24.83873 -81.58217 34098 ft 440 kts 226°
2026-04-28 16:43 24.79436 -81.62830 34100 ft 440 kts 228°
2026-04-28 16:44 24.75046 -81.67526 34103 ft 439 kts 228°
2026-04-28 16:44 24.70643 -81.72228 34105 ft 440 kts 228°
2026-04-28 16:45 24.66264 -81.76880 34108 ft 440 kts 228°
2026-04-28 16:45 24.61854 -81.81549 34107 ft 440 kts 228°
2026-04-28 16:46 24.57433 -81.86210 34106 ft 440 kts 228°
2026-04-28 16:46 24.53006 -81.90870 34108 ft 441 kts 227°
2026-04-28 16:47 24.48838 -81.95770 34105 ft 437 kts 237°
2026-04-28 16:47 24.45689 -82.01369 34100 ft 431 kts 246°
2026-04-28 16:48 24.43049 -82.07271 34099 ft 431 kts 248°
2026-04-28 16:48 24.40514 -82.13191 34094 ft 430 kts 249°
2026-04-28 16:49 24.37953 -82.19135 34092 ft 431 kts 248°
2026-04-28 16:49 24.35375 -82.25062 34087 ft 431 kts 248°
2026-04-28 16:50 24.32792 -82.30959 34091 ft 431 kts 248°
2026-04-28 16:50 24.30198 -82.36867 34091 ft 432 kts 248°
2026-04-28 16:51 24.27595 -82.42776 34091 ft 432 kts 248°
2026-04-28 16:51 24.24985 -82.48691 34092 ft 432 kts 248°
2026-04-28 16:52 24.22365 -82.54622 34090 ft 432 kts 248°
2026-04-28 16:52 24.19754 -82.60520 34091 ft 432 kts 248°
2026-04-28 16:53 24.17131 -82.66442 34092 ft 433 kts 248°
2026-04-28 16:53 24.14502 -82.72372 34096 ft 437 kts 248°
2026-04-28 16:54 24.11811 -82.78446 34018 ft 449 kts 247°
2026-04-28 16:54 24.10451 -82.81507 33625 ft 447 kts 247°
2026-04-28 16:54 24.09097 -82.84547 33181 ft 441 kts 248°
2026-04-28 16:54 24.08205 -82.86546 32902 ft 437 kts 248°
2026-04-28 16:55 24.06409 -82.90494 32065 ft 439 kts 246°
2026-04-28 16:55 24.04862 -82.93384 31335 ft 445 kts 239°
2026-04-28 16:55 24.02863 -82.96002 30569 ft 453 kts 228°
2026-04-28 16:55 24.00424 -82.98216 29753 ft 462 kts 218°
2026-04-28 16:56 23.97668 -83.00034 29073 ft 464 kts 211°
2026-04-28 16:56 23.94750 -83.01559 28440 ft 465 kts 204°
2026-04-28 16:56 23.91650 -83.02598 27805 ft 466 kts 193°
2026-04-28 16:56 23.88434 -83.02986 27166 ft 466 kts 182°
2026-04-28 16:57 23.85190 -83.02860 26517 ft 464 kts 176°
2026-04-28 16:57 23.81968 -83.02524 25865 ft 463 kts 173°
2026-04-28 16:57 23.78804 -83.02100 25225 ft 461 kts 172°
2026-04-28 16:57 23.75619 -83.01630 24568 ft 460 kts 172°
2026-04-28 16:58 23.72459 -83.01148 23911 ft 458 kts 171°
2026-04-28 16:58 23.69293 -83.00663 23252 ft 457 kts 171°
2026-04-28 16:58 23.66171 -83.00190 22599 ft 455 kts 171°
2026-04-28 16:58 23.63007 -82.99716 21929 ft 453 kts 171°
2026-04-28 16:59 23.59902 -82.99257 21277 ft 451 kts 171°
2026-04-28 16:59 23.56798 -82.98803 20628 ft 448 kts 171°
2026-04-28 16:59 23.53731 -82.98357 19984 ft 446 kts 171°
2026-04-28 16:59 23.50651 -82.97913 19321 ft 443 kts 171°
2026-04-28 17:00 23.47590 -82.97472 18671 ft 441 kts 171°
2026-04-28 17:00 23.44590 -82.97041 18018 ft 438 kts 171°
2026-04-28 17:00 23.41568 -82.96606 17368 ft 435 kts 171°
2026-04-28 17:00 23.38583 -82.96178 16732 ft 432 kts 171°
2026-04-28 17:01 23.35583 -82.95747 16070 ft 429 kts 171°
2026-04-28 17:01 23.32662 -82.95329 15438 ft 426 kts 171°
2026-04-28 17:01 23.29722 -82.94909 14790 ft 423 kts 171°
2026-04-28 17:01 23.26811 -82.94493 14133 ft 420 kts 170°
2026-04-28 17:02 23.23917 -82.94080 13494 ft 417 kts 170°
2026-04-28 17:02 23.21986 -82.93803 13061 ft 415 kts 170°
2026-04-28 17:02 23.18218 -82.93265 12226 ft 410 kts 171°
2026-04-28 17:02 23.15387 -82.92860 11582 ft 406 kts 171°
2026-04-28 17:03 23.09853 -82.92043 10517 ft 391 kts 168°
2026-04-28 17:03 23.07229 -82.91396 10364 ft 373 kts 163°
2026-04-28 17:03 23.04799 -82.90647 10227 ft 357 kts 161°
2026-04-28 17:04 23.00144 -82.89070 9434 ft 339 kts 161°
2026-04-28 17:04 22.97933 -82.88319 9020 ft 328 kts 161°
2026-04-28 17:05 22.93697 -82.86911 8245 ft 308 kts 161°
2026-04-28 17:05 22.91674 -82.86249 7875 ft 299 kts 162°
2026-04-28 17:05 22.89727 -82.85613 7515 ft 290 kts 162°
2026-04-28 17:06 22.85892 -82.84361 6816 ft 284 kts 161°
2026-04-28 17:06 22.84052 -82.83580 6461 ft 281 kts 150°
2026-04-28 17:06 22.81940 -82.80396 5805 ft 263 kts 97°
2026-04-28 17:07 22.81983 -82.78468 5486 ft 256 kts 81°
2026-04-28 17:07 22.82389 -82.76589 5166 ft 253 kts 74°
2026-04-28 17:07 22.82908 -82.74780 4847 ft 252 kts 73°
2026-04-28 17:07 22.83441 -82.72984 4532 ft 251 kts 73°
2026-04-28 17:08 22.83956 -82.71199 4335 ft 241 kts 73°
2026-04-28 17:08 22.84436 -82.69495 4272 ft 230 kts 74°
2026-04-28 17:08 22.84885 -82.67875 4206 ft 218 kts 74°
2026-04-28 17:08 22.85311 -82.66336 4138 ft 206 kts 74°
2026-04-28 17:09 22.85712 -82.64895 4067 ft 195 kts 74°
2026-04-28 17:09 22.86098 -82.63516 3939 ft 187 kts 73°
2026-04-28 17:09 22.86473 -82.62172 3708 ft 185 kts 73°
2026-04-28 17:09 22.86838 -82.60849 3491 ft 182 kts 73°
2026-04-28 17:10 22.87198 -82.59547 3309 ft 177 kts 73°
2026-04-28 17:10 22.87613 -82.58318 3137 ft 172 kts 65°
2026-04-28 17:10 22.88178 -82.57208 2992 ft 165 kts 59°
2026-04-28 17:10 22.88796 -82.56175 2825 ft 159 kts 58°
2026-04-28 17:11 22.89392 -82.55224 2678 ft 145 kts 57°
2026-04-28 17:11 22.89948 -82.54370 2524 ft 131 kts 57°
2026-04-28 17:11 22.90475 -82.53574 2389 ft 127 kts 56°
2026-04-28 17:11 22.90985 -82.52795 2271 ft 128 kts 56°
2026-04-28 17:12 22.91501 -82.52017 2156 ft 126 kts 55°
2026-04-28 17:12 22.92029 -82.51234 2130 ft 133 kts 56°
2026-04-28 17:12 22.92586 -82.50384 1933 ft 138 kts 56°
2026-04-28 17:12 22.93140 -82.49570 1701 ft 130 kts 57°
2026-04-28 17:13 22.93658 -82.48773 1592 ft 131 kts 58°
2026-04-28 17:13 22.94206 -82.47944 1394 ft 132 kts 53°
2026-04-28 17:13 22.94746 -82.47126 1229 ft 136 kts 58°
2026-04-28 17:13 22.95301 -82.46289 1044 ft 137 kts 53°
2026-04-28 17:14 22.95878 -82.45470 885 ft 137 kts 55°
2026-04-28 17:14 22.96470 -82.44600 696 ft 148 kts 55°
2026-04-28 17:14 22.97054 -82.43695 522 ft 144 kts 57°
2026-04-28 17:14 22.97639 -82.42832 339 ft 141 kts 57°
2026-04-28 17:15 22.98216 -82.41980 225 ft 135 kts 58°
2026-04-28 17:15 22.98649 -82.41311 216 ft 77 kts 55°
2026-04-28 17:15 22.98893 -82.41081 215 ft 28 kts
2026-04-28 17:15 22.99029 -82.41046 215 ft 22 kts 38°
2026-04-28 17:16 22.99155 -82.40870 214 ft 34 kts 54°
2026-04-28 17:16 22.99282 -82.40670 214 ft 30 kts 56°
2026-04-28 17:16 22.99405 -82.40489 215 ft 28 kts 54°
2026-04-28 17:16 22.99522 -82.40436 216 ft 18 kts 328°
2026-04-28 17:17 22.99587 -82.40535 216 ft 16 kts 276°
2026-04-28 17:17 22.99627 -82.40620 217 ft 3 kts 302°
2026-04-28 17:17 22.99628 -82.40621 217 ft 0 kts 302°